Station CRYV2 - 8638595 - South Craney Island, VA Image indicating link to RSS feed of recent meteorological observations for station CRYV2


Conditions at CRYV2 as of
(7:18 am EDT)
1118 GMT on 07/20/2024:
     

Click on the graph icon in the table below to see a time series plot of the last five days of that observation.

5-day plot - Wind Direction Wind Direction (WDIR): S ( 170 deg true )
5-day plot - Wind Speed Wind Speed (WSPD): 5.1 kts
5-day plot - Wind Gust Wind Gust (GST): 7.0 kts
5-day plot - Atmospheric Pressure Atmospheric Pressure (PRES):30.08 in
5-day plot - Air Temperature Air Temperature (ATMP): 79.2 °F
5-day plot - Wind Speed at 10 Meters Wind Speed at 10 meters (WSPD10M): 5.8 kts
5-day plot - Wind Speed at 20 Meters Wind Speed at 20 meters (WSPD20M): 5.8 kts
5-day plot -  Wind Speed, Wind Gust and Atmospheric Pressure Combined plot of Wind Speed, Gust, and Air Pressure
NOS Water Level Observation Network Water Level
Previous observations
TIME
(EDT)
5-day plot - Wind Direction
WDIR
 
5-day plot - Wind Speed
WSPD
kts
5-day plot - Wind Gust
GST
kts
5-day plot - Wave Height
WVHT
ft
5-day plot - Dominant Wave Period
DPD
sec
5-day plot - Average Wave Period
APD
sec
5-day plot - Mean Wave Direction
MWD
 
5-day plot - Atmospheric Pressure
PRES
in
5-day plot - Pressure Tendency
PTDY
in
5-day plot - Air Temperature
ATMP
°F
5-day plot - Water Temperature
WTMP
°F
5-day plot - Dew Point
DEWP
°F
5-day plot - Salinity
SAL
psu
5-day plot - Visibility
VIS
nmi
5-day plot - Tide (above MLLW)
TIDE
ft
2024-07-20 07:12 amSSE 6.0 7.0----30.08- 78.8-----
2024-07-20 07:06 amSSE 5.1 6.0----30.08- 79.0-----
2024-07-20 07:00 am-------30.07+0.01 78.6-----
2024-07-20 06:54 am-------30.07- 78.3-----
2024-07-20 06:48 amSSE 4.1 5.1----30.07-------
2024-07-20 06:42 amSSE 4.1 5.1----30.07-------
2024-07-20 06:36 amSSE 2.9 4.1----30.07-------
2024-07-20 06:30 am-------30.07- 77.7-----
2024-07-20 06:24 am-------30.07- 77.9-----
2024-07-20 06:18 am SE 2.9 4.1----30.07- 77.7-----
2024-07-20 06:12 am SE 4.1 4.1----30.07- 77.7-----
2024-07-20 06:06 am SE 4.1 5.1----30.07- 77.9-----
2024-07-20 06:00 am SE 4.1 4.1----30.07+0.00 77.9-----
2024-07-20 05:54 am SE 2.9 4.1----30.07- 77.9-----
2024-07-20 05:48 am SE 2.9 4.1----30.07- 77.9-----
2024-07-20 05:42 am SE 4.1 4.1----30.07- 77.7-----
2024-07-20 05:36 am SE 4.1 5.1----30.07- 77.9-----
2024-07-20 05:30 am SE 4.1 5.1----30.07- 77.9-----
2024-07-20 05:24 am SE 4.1 5.1----30.06- 77.7-----
2024-07-20 05:18 am SE 5.1 6.0----30.06- 77.9-----
2024-07-20 05:12 amESE 4.1 5.1----30.06- 77.9-----
2024-07-20 05:06 am SE 5.1 6.0----30.06- 77.9-----
2024-07-20 05:00 am SE 5.1 5.1----30.06-0.02 77.9-----
2024-07-20 04:54 amESE 4.1 5.1----30.06- 77.9-----
2024-07-20 04:48 amESE 2.9 5.1----30.06-------
2024-07-20 04:42 am SE 5.1 5.1----30.06-------
2024-07-20 04:36 am SE 5.1 6.0----30.06-------
2024-07-20 04:30 amSSE 5.1 6.0----30.06- 78.1-----
2024-07-20 04:24 am SE 5.1 6.0----30.06- 78.1-----
2024-07-20 04:18 am SE 5.1 6.0----30.06-------
2024-07-20 04:12 amESE 4.1 6.0----30.06-------
2024-07-20 04:06 am SE 5.1 6.0----30.06-------
2024-07-20 04:00 amESE 5.1 6.0----30.06-0.03 78.1-----
2024-07-20 03:54 amESE 5.1 5.1----30.06- 78.1-----
2024-07-20 03:48 am SE 2.9 5.1----30.07-------
2024-07-20 03:42 amSSE 4.1 6.0----30.07-------
2024-07-20 03:36 am SE 6.0 7.0----30.07-------
2024-07-20 03:30 am SE 6.0 8.0----30.07- 78.1-----
2024-07-20 03:24 amSSE 5.1 7.0----30.07- 78.1-----
2024-07-20 03:18 am-------30.07- 78.1-----
2024-07-20 03:12 am-------30.08- 78.1-----
2024-07-20 03:06 am-------30.08- 77.9-----
2024-07-20 03:00 am SE 5.1 6.0----30.08-0.03 78.1-----
2024-07-20 02:54 am SE 5.1 6.0----30.08- 77.9-----
2024-07-20 02:48 am-------30.07- 77.9-----
2024-07-20 02:42 am-------30.08- 78.1-----
2024-07-20 02:36 am-------30.08- 78.1-----
2024-07-20 02:30 amSSE 5.1 6.0----30.08- 78.1-----
2024-07-20 02:24 amSSE 6.0 7.0----30.08- 78.1-----
2024-07-20 02:18 am SE 5.1 8.0----30.08- 78.1-----
2024-07-20 02:12 am SE 7.0 8.9----30.08- 77.9-----
2024-07-20 02:06 am SE 6.0 8.0----30.08- 77.9-----
2024-07-20 02:00 am SE 8.0 8.9----30.08-0.04 78.1-----
2024-07-20 01:54 amESE 8.9 9.9----30.08- 77.7-----
2024-07-20 01:48 amESE 5.1 6.0----30.08- 77.4-----
2024-07-20 01:42 amESE 5.1 6.0----30.08- 77.4-----
2024-07-20 01:36 amESE 4.1 5.1----30.08- 77.0-----
2024-07-20 01:30 am E 5.1 5.1----30.08- 76.6-----
2024-07-20 01:24 am E 4.1 5.1----30.09- 76.5-----
2024-07-20 01:18 am E 5.1 5.1----30.09- 76.3-----
2024-07-20 01:12 am E 5.1 5.1----30.09- 76.5-----
2024-07-20 01:06 am E 5.1 6.0----30.09- 76.3-----
2024-07-20 01:00 amENE 5.1 6.0----30.09-0.03 75.9-----
2024-07-20 12:54 amENE 5.1 6.0----30.09- 76.1-----
2024-07-20 12:48 amENE 5.1 5.1----30.09-------
2024-07-20 12:42 amENE 5.1 6.0----30.09-------
2024-07-20 12:36 amENE 5.1 6.0----30.10-------
2024-07-20 12:30 amENE 5.1 6.0----30.10- 75.9-----
2024-07-20 12:24 amENE 5.1 6.0----30.10- 75.6-----
2024-07-20 12:18 am NE 5.1 6.0----30.11- 75.6-----
2024-07-20 12:12 am NE 5.1 7.0----30.11- 75.4-----
2024-07-20 12:06 am NE 6.0 6.0----30.11- 75.4-----
2024-07-20 12:00 am NE 5.1 5.1----30.11+0.00 75.6-----
2024-07-19 11:54 pmENE 5.1 6.0----30.11- 75.4-----
2024-07-19 11:48 pmENE 5.1 6.0----30.11- 75.4-----
2024-07-19 11:42 pmENE 5.1 6.0----30.11- 75.6-----
2024-07-19 11:36 pmENE 5.1 6.0----30.11- 75.2-----
2024-07-19 11:30 pmENE 4.1 5.1----30.11- 75.4-----
2024-07-19 11:24 pmENE 5.1 6.0----30.11- 75.2-----
2024-07-19 11:18 pmENE 5.1 6.0----30.11- 75.2-----
2024-07-19 11:12 pmENE 4.1 5.1----30.12- 75.2-----
2024-07-19 11:06 pm E 4.1 6.0----30.12- 75.0-----
2024-07-19 11:00 pm E 5.1 7.0----30.12+0.02 75.0-----
2024-07-19 10:54 pm E 6.0 8.9----30.11- 75.0-----
2024-07-19 10:48 pm E 7.0 8.0----30.11-------
2024-07-19 10:42 pm E 5.1 6.0----30.11-------
2024-07-19 10:36 pm E 5.1 7.0----30.11-------
2024-07-19 10:30 pmENE 6.0 7.0----30.11- 74.8-----
2024-07-19 10:24 pm E 6.0 8.0----30.12- 75.0-----
2024-07-19 10:18 pmENE 6.0 7.0----30.12- 74.8-----
2024-07-19 10:12 pmENE 6.0 7.0----30.12- 75.0-----
2024-07-19 10:06 pmENE 5.1 6.0----30.12- 75.0-----
2024-07-19 10:00 pm E 6.0 7.0----30.12+0.04 75.2-----
2024-07-19 09:54 pm E 5.1 7.0----30.12- 74.8-----
2024-07-19 09:48 pm E 6.0 8.9----30.11- 74.8-----
2024-07-19 09:42 pmENE 6.0 7.0----30.11- 74.8-----
2024-07-19 09:36 pmENE 6.0 7.0----30.12- 74.8-----
2024-07-19 09:30 pmENE 6.0 7.0----30.11- 75.0-----
2024-07-19 09:24 pmENE 5.1 8.0----30.11- 75.4-----
2024-07-19 09:18 pmENE 7.0 8.9----30.11- 75.2-----
2024-07-19 09:12 pm E 8.0 9.9----30.11- 75.0-----
2024-07-19 09:06 pmENE 8.0 8.9----30.11- 75.0-----
2024-07-19 09:00 pm E 7.0 8.9----30.10+0.03 75.2-----
2024-07-19 08:54 pm E 8.0 8.9----30.10- 75.2-----
2024-07-19 08:48 pmENE 7.0 9.9----30.10- 75.2-----
2024-07-19 08:42 pm E 8.0 9.9----30.10- 75.6-----
2024-07-19 08:36 pm E 8.0 11.1----30.11- 75.6-----
2024-07-19 08:30 pm E 8.0 11.1----30.10- 75.7-----
2024-07-19 08:24 pm E 8.9 9.9----30.10- 75.7-----
2024-07-19 08:18 pm E 8.9 11.1----30.10-------
2024-07-19 08:12 pm E 11.1 12.0----30.10-------
2024-07-19 08:06 pm E 11.1 12.0----30.09-------
2024-07-19 08:00 pm E 6.0 9.9----30.09+0.02 76.6-----
2024-07-19 07:54 pm E 8.9 9.9----30.09- 76.5-----
2024-07-19 07:48 pm E 8.0 9.9----30.09- 76.6-----
2024-07-19 07:42 pm E 8.0 11.1----30.09- 76.6-----
2024-07-19 07:36 pm E 9.9 12.0----30.09- 76.5-----
2024-07-19 07:30 pm E 9.9 12.0----30.09- 76.6-----
2024-07-19 07:24 pm E 11.1 13.0----30.09- 76.6-----
2024-07-19 07:18 pm E 12.0 14.0----30.09- 76.8-----
2024-07-19 07:00 pm E 11.1 13.0----30.09+0.00------
2024-07-19 06:54 pmENE 11.1 13.0----30.09-------
2024-07-19 06:48 pm E 11.1 13.0----30.09- 77.4-----
2024-07-19 06:42 pm E 12.0 14.0----30.09- 77.5-----
2024-07-19 06:36 pmENE 11.1 13.0----30.09- 77.7-----
2024-07-19 06:30 pmENE 8.9 12.0----30.09-------
2024-07-19 06:24 pmENE 11.1 14.0----30.08-------
2024-07-19 06:18 pmENE 12.0 13.0----30.08-------
2024-07-19 06:12 pm E 12.0 14.0----30.08-------
2024-07-19 06:06 pm E 12.0 13.0----30.08-------
2024-07-19 06:00 pm E 12.0 13.0----30.08-0.02 78.8-----
2024-07-19 05:54 pmENE 9.9 13.0----30.08- 78.8-----
2024-07-19 05:48 pmENE 11.1 12.0----30.08- 79.0-----
2024-07-19 05:42 pm E 9.9 13.0----30.08- 79.2-----
2024-07-19 05:36 pm E 9.9 13.0----30.08- 79.3-----
2024-07-19 05:30 pm E 12.0 14.0----30.07- 79.2-----
2024-07-19 05:24 pm E 12.0 14.0----30.07- 79.5-----
2024-07-19 05:18 pm E 11.1 13.0----30.07- 79.2-----
2024-07-19 05:12 pmENE 12.0 14.0----30.07- 79.3-----
2024-07-19 05:06 pmENE 12.0 15.0----30.07- 79.2-----
2024-07-19 05:00 pmENE 13.0 15.9----30.07-0.02 79.2-----
2024-07-19 04:54 pm E 12.0 14.0----30.07- 79.2-----
2024-07-19 04:48 pmENE 11.1 15.0----30.07-------
2024-07-19 04:42 pmENE 11.1 14.0----30.07-------
2024-07-19 04:36 pmENE 13.0 15.0----30.07-------
2024-07-19 04:30 pmENE 12.0 15.0----30.07- 79.2-----
2024-07-19 04:24 pmENE 12.0 14.0----30.07- 79.2-----
2024-07-19 04:18 pmENE 11.1 14.0----30.08- 79.0-----
2024-07-19 04:12 pm NE 12.0 14.0----30.08- 78.8-----
2024-07-19 04:06 pmENE 12.0 15.0----30.08- 78.8-----
2024-07-19 04:00 pmENE 12.0 14.0----30.08-0.02 79.0-----
2024-07-19 03:54 pmENE 13.0 15.0----30.08- 79.0-----
2024-07-19 03:48 pmENE 13.0 15.0----30.08- 79.0-----
2024-07-19 03:42 pmENE 13.0 15.0----30.08- 78.8-----
2024-07-19 03:36 pmENE 12.0 15.0----30.08- 79.2-----
2024-07-19 03:30 pmENE 12.0 14.0----30.08- 79.3-----
2024-07-19 03:24 pmENE 12.0 15.0----30.09- 79.3-----
2024-07-19 03:18 pmENE 14.0 15.0----30.08- 79.3-----
2024-07-19 03:12 pmENE 9.9 14.0----30.09- 79.7-----
2024-07-19 03:06 pm NE 11.1 13.0----30.09- 79.7-----
2024-07-19 03:00 pmENE 11.1 13.0----30.09+0.00 79.9-----
2024-07-19 02:54 pmENE 11.1 13.0----30.09- 79.7-----
2024-07-19 02:48 pmENE 9.9 13.0----30.09- 79.7-----
2024-07-19 02:42 pmENE 11.1 12.0----30.09- 79.5-----
2024-07-19 02:36 pm E 12.0 14.0----30.09- 79.5-----
2024-07-19 02:30 pm E 9.9 14.0----30.09- 79.5-----
2024-07-19 02:24 pmENE 8.9 15.0----30.09- 79.9-----
2024-07-19 02:18 pmENE 8.9 13.0----30.09- 79.9-----
2024-07-19 02:12 pm E 8.9 13.0----30.09- 79.9-----
2024-07-19 02:06 pmENE 11.1 13.0----30.09- 79.7-----
2024-07-19 02:00 pm E 11.1 13.0----30.09+0.00 79.7-----
2024-07-19 01:54 pmENE 12.0 13.0----30.09- 79.3-----
2024-07-19 01:48 pmENE 9.9 12.0----30.09- 79.5-----
2024-07-19 01:42 pmENE 11.1 12.0----30.09- 79.3-----
2024-07-19 01:36 pmENE 11.1 13.0----30.10- 79.3-----
2024-07-19 01:30 pmENE 12.0 14.0----30.10- 79.2-----
2024-07-19 01:24 pmENE 12.0 14.0----30.10- 79.0-----
2024-07-19 01:18 pmENE 11.1 14.0----30.10- 79.0-----
2024-07-19 01:12 pmENE 12.0 14.0----30.10- 79.2-----
2024-07-19 01:06 pm NE 12.0 14.0----30.10- 79.0-----
2024-07-19 01:00 pmENE 12.0 13.0----30.10+0.02 78.8-----
2024-07-19 12:54 pm E 9.9 12.0----30.10- 79.3-----
2024-07-19 12:48 pm E 11.1 13.0----30.10- 79.5-----
2024-07-19 12:42 pm E 11.1 13.0----30.10- 79.5-----
2024-07-19 12:36 pm E 9.9 12.0----30.10- 79.5-----
2024-07-19 12:30 pm E 9.9 12.0----30.10- 79.2-----
2024-07-19 12:24 pm E 8.9 11.1----30.10- 79.2-----
2024-07-19 12:18 pm E 9.9 12.0----30.10- 78.8-----
2024-07-19 12:12 pmENE 12.0 14.0----30.10- 78.6-----
2024-07-19 12:06 pm E 9.9 12.0----30.10- 78.6-----
2024-07-19 12:00 pmENE 9.9 14.0----30.10+0.02 78.6-----
2024-07-19 11:54 amENE 9.9 13.0----30.10- 78.3-----
2024-07-19 11:48 amENE 8.9 14.0----30.10- 78.1-----
2024-07-19 11:42 amENE 8.9 12.0----30.10- 77.7-----
2024-07-19 11:36 am NE 11.1 13.0----30.09- 77.7-----
2024-07-19 11:30 amENE 9.9 12.0----30.09- 78.1-----
2024-07-19 11:24 amENE 8.9 12.0----30.10- 78.1-----
2024-07-19 11:18 am NE 9.9 12.0----30.09- 78.1-----
2024-07-19 11:12 am NE 9.9 12.0----30.09- 77.9-----
2024-07-19 11:06 amENE 9.9 12.0----30.09- 78.1-----
2024-07-19 11:00 amENE 11.1 13.0----30.09+0.03 77.9-----
2024-07-19 10:54 am NE 11.1 12.0----30.09- 77.9-----
2024-07-19 10:48 amENE 8.9 9.9----30.09- 78.1-----
2024-07-19 10:42 amENE 8.9 12.0----30.09- 78.1-----
2024-07-19 10:36 amENE 8.0 9.9----30.09- 77.9-----
2024-07-19 10:30 amENE 8.9 11.1----30.08- 77.7-----
2024-07-19 10:24 am NE 9.9 11.1----30.08- 77.5-----
2024-07-19 10:18 amENE 8.0 11.1----30.08- 77.7-----
2024-07-19 10:12 amENE 8.9 11.1----30.08- 77.2-----
2024-07-19 10:06 amENE 9.9 12.0----30.08- 77.2-----
2024-07-19 10:00 amENE 8.9 13.0----30.08+0.05 77.2-----
2024-07-19 09:54 amENE 9.9 13.0----30.08- 77.2-----
2024-07-19 09:48 amENE 8.9 13.0----30.08- 77.2-----
2024-07-19 09:42 am NE 9.9 12.0----30.07- 77.4-----
2024-07-19 09:36 amENE 8.9 11.1----30.07- 77.9-----
2024-07-19 09:30 am NE 9.9 11.1----30.07- 77.5-----
2024-07-19 09:24 am NE 9.9 9.9----30.07- 77.5-----
2024-07-19 09:18 amENE 8.0 11.1----30.07- 77.9-----
2024-07-19 09:12 amENE 8.9 11.1----30.07- 77.5-----
2024-07-19 09:06 amENE 8.0 9.9----30.07- 77.5-----
2024-07-19 09:00 amENE 8.0 11.1----30.07+0.07 77.5-----
2024-07-19 08:54 amENE 7.0 9.9----30.07- 77.2-----
2024-07-19 08:48 am NE 8.9 12.0----30.07- 77.2-----
2024-07-19 08:42 amENE 8.9 11.1----30.07- 77.2-----
2024-07-19 08:36 amENE 8.0 12.0----30.07- 77.2-----
2024-07-19 08:30 amENE 9.9 12.0----30.07- 77.0-----
2024-07-19 08:24 amENE 9.9 13.0----30.06- 77.2-----
2024-07-19 08:18 amENE 11.1 13.0----30.06- 77.0-----
2024-07-19 08:12 amENE 9.9 11.1----30.06- 77.0-----
2024-07-19 08:06 amENE 8.9 9.9----30.06- 77.2-----
2024-07-19 08:00 amENE 8.0 9.9----30.06+0.07 77.2-----
2024-07-19 07:54 amENE 8.0 8.9----30.05- 77.2-----